| time (UTC) | temp F | wind direction | speed MPH | gust MPH | rain 1hr in | rain 24hr in | rain mn in | humidity % | barometer mb |
| 20260504130656 | 58 | 296 | 4.0 | 8.0 | 0.00 | 0.00 | 0.00 | 26 | 1020.6 |
| 20260504130157 | 57 | 295 | 4.0 | 8.0 | 0.00 | 0.00 | 0.00 | 26 | 1020.6 |
| 20260504120156 | 57 | 299 | 4.0 | 8.0 | 0.00 | 0.00 | 0.00 | 24 | 1020.6 |
| 20260504110655 | 52 | 269 | 0.0 | 0.0 | 0.00 | 0.00 | 0.00 | 28 | 1020.6 |
| 20260504110202 | 53 | 271 | 0.0 | 1.0 | 0.00 | 0.00 | 0.00 | 29 | 1020.6 |
| 20260504110156 | 53 | 269 | 0.0 | 1.0 | 0.00 | 0.00 | 0.00 | 28 | 1020.6 |
| 20260504100424 | 50 | 290 | 0.0 | 0.0 | 0.00 | 0.00 | 0.00 | 38 | 1020.6 |
| 20260504081655 | 52 | 222 | 0.0 | 0.0 | 0.00 | 0.00 | 0.00 | 36 | 1020.6 |
| 20260504081154 | 52 | 96 | 0.0 | 0.0 | 0.00 | 0.00 | 0.00 | 36 | 1020.6 |
| 20260504080653 | 52 | 110 | 0.0 | 0.0 | 0.00 | 0.00 | 0.00 | 35 | 1020.6 |
| 20260504080152 | 53 | 108 | 0.0 | 3.0 | 0.00 | 0.00 | 0.00 | 35 | 1020.6 |
| 20260504070149 | 52 | 306 | 4.0 | 6.0 | 0.00 | 0.00 | 0.00 | 38 | 1020.6 |
| 20260504060147 | 56 | 307 | 5.0 | 10.0 | 0.00 | 0.00 | 0.00 | 32 | 1020.6 |
| 20260504050641 | 59 | 290 | 8.0 | 13.0 | 0.00 | 0.00 | 0.00 | 29 | 1020.6 |
| 20260504050415 | 59 | 278 | 8.0 | 13.0 | 0.00 | 0.00 | 0.00 | 29 | 1020.6 |
| 20260504045643 | 59 | 310 | 7.0 | 13.0 | 0.00 | 0.00 | 0.00 | 29 | 1020.6 |
| 20260504045143 | 60 | 292 | 6.0 | 11.0 | 0.00 | 0.00 | 0.00 | 29 | 1020.6 |
| 20260504044640 | 60 | 255 | 6.0 | 11.0 | 0.00 | 0.00 | 0.00 | 29 | 1020.6 |
| 20260504044140 | 60 | 261 | 6.0 | 10.0 | 0.00 | 0.00 | 0.00 | 29 | 1020.6 |
| 20260504043642 | 60 | 291 | 5.0 | 10.0 | 0.00 | 0.00 | 0.00 | 29 | 1020.6 |
| 20260504043141 | 60 | 273 | 4.0 | 9.0 | 0.00 | 0.00 | 0.00 | 29 | 1020.6 |
| 20260504042640 | 60 | 308 | 4.0 | 9.0 | 0.00 | 0.00 | 0.00 | 28 | 1020.6 |
| 20260504042141 | 60 | 291 | 5.0 | 9.0 | 0.00 | 0.00 | 0.00 | 28 | 1020.6 |
| 20260504041639 | 60 | 293 | 4.0 | 8.0 | 0.00 | 0.00 | 0.00 | 29 | 1020.6 |
| 20260504041139 | 60 | 295 | 4.0 | 7.0 | 0.00 | 0.00 | 0.00 | 29 | 1020.6 |
| 20260504040639 | 60 | 283 | 5.0 | 9.0 | 0.00 | 0.00 | 0.00 | 29 | 1020.6 |
| 20260504040138 | 60 | 276 | 6.0 | 10.0 | 0.00 | 0.00 | 0.00 | 30 | 1020.6 |
| 20260504035643 | 60 | 266 | 6.0 | 9.0 | 0.00 | 0.00 | 0.00 | 31 | 1020.6 |
| 20260504035638 | 60 | 302 | 6.0 | 10.0 | 0.00 | 0.00 | 0.00 | 30 | 1020.6 |
| 20260504034638 | 60 | 262 | 5.0 | 9.0 | 0.00 | 0.00 | 0.00 | 31 | 1020.6 |
| 20260504034137 | 61 | 305 | 5.0 | 9.0 | 0.00 | 0.00 | 0.00 | 30 | 1020.6 |
| 20260504033639 | 61 | 288 | 6.0 | 10.0 | 0.00 | 0.00 | 0.00 | 30 | 1020.6 |
| 20260504033139 | 61 | 312 | 6.0 | 12.0 | 0.00 | 0.00 | 0.00 | 30 | 1020.6 |
| 20260504032638 | 61 | 312 | 7.0 | 12.0 | 0.00 | 0.00 | 0.00 | 30 | 1020.6 |
| 20260504032136 | 61 | 283 | 7.0 | 14.0 | 0.00 | 0.00 | 0.00 | 30 | 1020.6 |
| 20260504031910 | 61 | 286 | 7.0 | 14.0 | 0.00 | 0.00 | 0.00 | 30 | 1020.6 |
| 20260504031136 | 61 | 293 | 6.0 | 13.0 | 0.00 | 0.00 | 0.00 | 30 | 1020.6 |
| 20260504030637 | 61 | 283 | 6.0 | 13.0 | 0.00 | 0.00 | 0.00 | 29 | 1020.6 |
| 20260504030137 | 61 | 309 | 6.0 | 11.0 | 0.00 | 0.00 | 0.00 | 29 | 1020.6 |
| 20260504025636 | 61 | 283 | 6.0 | 11.0 | 0.00 | 0.00 | 0.00 | 30 | 1020.6 |
| 20260504025405 | 62 | 283 | 6.0 | 11.0 | 0.00 | 0.00 | 0.00 | 29 | 1020.6 |
| 20260504024635 | 62 | 296 | 6.0 | 11.0 | 0.00 | 0.00 | 0.00 | 29 | 1020.6 |
| 20260504024131 | 62 | 276 | 5.0 | 11.0 | 0.00 | 0.00 | 0.00 | 29 | 1020.6 |
| 20260504023903 | 62 | 283 | 4.0 | 10.0 | 0.00 | 0.00 | 0.00 | 28 | 1020.6 |
| 20260504023133 | 62 | 292 | 4.0 | 9.0 | 0.00 | 0.00 | 0.00 | 28 | 1020.6 |
| 20260504022903 | 63 | 302 | 3.0 | 9.0 | 0.00 | 0.00 | 0.00 | 27 | 1020.6 |
| 20260504022131 | 63 | 289 | 2.0 | 7.0 | 0.00 | 0.00 | 0.00 | 27 | 1020.6 |
| 20260504021628 | 64 | 277 | 3.0 | 7.0 | 0.00 | 0.00 | 0.00 | 26 | 1020.6 |
| 20260504021130 | 64 | 282 | 4.0 | 8.0 | 0.00 | 0.00 | 0.00 | 25 | 1020.6 |
| 20260504020629 | 64 | 281 | 5.0 | 10.0 | 0.00 | 0.00 | 0.00 | 25 | 1020.6 |
| 20260504020357 | 64 | 290 | 5.0 | 12.0 | 0.00 | 0.00 | 0.00 | 25 | 1020.6 |
| 20260504015628 | 64 | 300 | 6.0 | 13.0 | 0.00 | 0.00 | 0.00 | 25 | 1020.6 |
| 20260504015132 | 64 | 299 | 6.0 | 13.0 | 0.00 | 0.00 | 0.00 | 25 | 1020.6 |
| 20260504015126 | 64 | 281 | 7.0 | 13.0 | 0.00 | 0.00 | 0.00 | 25 | 1020.6 |
| 20260504014127 | 63 | 281 | 5.0 | 10.0 | 0.00 | 0.00 | 0.00 | 27 | 1020.6 |
| 20260504013628 | 63 | 291 | 6.0 | 10.0 | 0.00 | 0.00 | 0.00 | 27 | 1020.6 |
| 20260504013126 | 63 | 266 | 6.0 | 9.0 | 0.00 | 0.00 | 0.00 | 27 | 1020.6 |
| 20260504012627 | 63 | 302 | 5.0 | 9.0 | 0.00 | 0.00 | 0.00 | 27 | 1020.6 |
| 20260504012128 | 63 | 286 | 5.0 | 7.0 | 0.00 | 0.00 | 0.00 | 27 | 1020.6 |
| 20260504011625 | 64 | 293 | 4.0 | 12.0 | 0.00 | 0.00 | 0.00 | 26 | 1020.6 |
| 20260504011123 | 65 | 309 | 6.0 | 14.0 | 0.00 | 0.00 | 0.00 | 26 | 1020.6 |
| 20260504010623 | 65 | 1 | 8.0 | 14.0 | 0.00 | 0.00 | 0.00 | 26 | 1020.6 |
| 20260504010123 | 65 | 334 | 9.0 | 16.0 | 0.00 | 0.00 | 0.00 | 25 | 1020.6 |
| 20260504005625 | 65 | 321 | 8.0 | 16.0 | 0.00 | 0.00 | 0.00 | 26 | 1020.6 |
| 20260504005125 | 65 | 283 | 6.0 | 11.0 | 0.00 | 0.00 | 0.00 | 26 | 1020.6 |
| 20260504004624 | 65 | 300 | 6.0 | 12.0 | 0.00 | 0.00 | 0.00 | 26 | 1020.6 |
| 20260504004125 | 64 | 320 | 6.0 | 12.0 | 0.00 | 0.00 | 0.00 | 26 | 1020.6 |
| 20260504003857 | 65 | 338 | 6.0 | 10.0 | 0.00 | 0.00 | 0.00 | 26 | 1020.6 |
| 20260504003124 | 65 | 296 | 6.0 | 10.0 | 0.00 | 0.00 | 0.00 | 26 | 1020.6 |
| 20260504002623 | 64 | 277 | 5.0 | 11.0 | 0.00 | 0.00 | 0.00 | 26 | 1020.6 |
| 20260504002355 | 63 | 299 | 4.0 | 11.0 | 0.00 | 0.00 | 0.00 | 27 | 1020.6 |
| 20260504001625 | 64 | 38 | 5.0 | 10.0 | 0.00 | 0.00 | 0.00 | 27 | 1020.6 |
| 20260504001354 | 63 | 352 | 5.0 | 11.0 | 0.00 | 0.00 | 0.00 | 26 | 1020.6 |
| 20260504000625 | 63 | 44 | 4.0 | 11.0 | 0.00 | 0.00 | 0.00 | 29 | 1020.6 |
| 20260504000123 | 64 | 48 | 4.0 | 9.0 | 0.00 | 0.00 | 0.00 | 28 | 1020.6 |
| 20260503235624 | 64 | 47 | 3.0 | 7.0 | 0.00 | 0.00 | 0.00 | 27 | 1020.6 |
| 20260503235123 | 64 | 6 | 4.0 | 8.0 | 0.00 | 0.00 | 0.00 | 28 | 1020.6 |
| 20260503234624 | 63 | 89 | 4.0 | 9.0 | 0.00 | 0.00 | 0.00 | 30 | 1020.6 |
| 20260503234124 | 64 | 93 | 5.0 | 9.0 | 0.00 | 0.00 | 0.00 | 29 | 1020.6 |
| 20260503233624 | 64 | 349 | 4.0 | 9.0 | 0.00 | 0.00 | 0.00 | 28 | 1020.6 |
| 20260503233126 | 64 | 1 | 4.0 | 8.0 | 0.00 | 0.00 | 0.00 | 28 | 1020.6 |
| 20260503232624 | 64 | 30 | 6.0 | 16.0 | 0.00 | 0.00 | 0.00 | 29 | 1020.6 |
| 20260503232124 | 64 | 10 | 8.0 | 16.0 | 0.00 | 0.00 | 0.00 | 29 | 1020.6 |
| 20260503231855 | 64 | 86 | 9.0 | 14.0 | 0.00 | 0.00 | 0.00 | 28 | 1020.6 |
| 20260503231358 | 65 | 63 | 8.0 | 14.0 | 0.00 | 0.00 | 0.00 | 27 | 1020.6 |
| 20260503230623 | 65 | 49 | 7.0 | 14.0 | 0.00 | 0.00 | 0.00 | 26 | 1020.6 |
| 20260503230125 | 66 | 48 | 7.0 | 13.0 | 0.00 | 0.00 | 0.00 | 25 | 1020.6 |
| 20260503225855 | 66 | 37 | 6.0 | 11.0 | 0.00 | 0.00 | 0.00 | 24 | 1020.6 |
| 20260503225355 | 66 | 52 | 5.0 | 9.0 | 0.00 | 0.00 | 0.00 | 23 | 1020.6 |
| 20260503224624 | 66 | 51 | 3.0 | 6.0 | 0.00 | 0.00 | 0.00 | 23 | 1020.6 |
| 20260503224126 | 66 | 49 | 3.0 | 8.0 | 0.00 | 0.00 | 0.00 | 23 | 1020.6 |
| 20260503223623 | 67 | 323 | 3.0 | 8.0 | 0.00 | 0.00 | 0.00 | 23 | 1020.6 |
| 20260503223356 | 67 | 4 | 4.0 | 9.0 | 0.00 | 0.00 | 0.00 | 22 | 1020.6 |
| 20260503222624 | 68 | 34 | 5.0 | 10.0 | 0.00 | 0.00 | 0.00 | 22 | 1020.6 |
| 20260503222357 | 69 | 55 | 4.0 | 10.0 | 0.00 | 0.00 | 0.00 | 22 | 1020.6 |
| 20260503221623 | 68 | 9 | 2.0 | 8.0 | 0.00 | 0.00 | 0.00 | 23 | 1020.6 |
| 20260503221124 | 68 | 119 | 1.0 | 7.0 | 0.00 | 0.00 | 0.00 | 23 | 1020.6 |
| 20260503220623 | 67 | 153 | 4.0 | 12.0 | 0.00 | 0.00 | 0.00 | 23 | 1020.6 |
| 20260503220122 | 67 | 281 | 4.0 | 12.0 | 0.00 | 0.00 | 0.00 | 23 | 1020.6 |
| 20260503215620 | 67 | 259 | 3.0 | 10.0 | 0.00 | 0.00 | 0.00 | 22 | 1020.6 |
| 20260503215119 | 67 | 296 | 4.0 | 12.0 | 0.00 | 0.00 | 0.00 | 22 | 1020.6 |
| 20260503214618 | 67 | 289 | 3.0 | 12.0 | 0.00 | 0.00 | 0.00 | 21 | 1020.6 |
| 20260503214120 | 68 | 251 | 1.0 | 12.0 | 0.00 | 0.00 | 0.00 | 21 | 1020.6 |
| 20260503213615 | 67 | 109 | 2.0 | 12.0 | 0.00 | 0.00 | 0.00 | 22 | 1020.6 |
| 20260503213118 | 68 | 71 | 4.0 | 23.0 | 0.00 | 0.00 | 0.00 | 21 | 1020.6 |
| 20260503212616 | 68 | 260 | 5.0 | 23.0 | 0.00 | 0.00 | 0.00 | 21 | 1020.6 |
| 20260503212115 | 69 | 295 | 5.0 | 11.0 | 0.00 | 0.00 | 0.00 | 19 | 1020.6 |
| 20260503211615 | 69 | 286 | 6.0 | 11.0 | 0.00 | 0.00 | 0.00 | 19 | 1020.6 |
| 20260503211115 | 69 | 297 | 4.0 | 10.0 | 0.00 | 0.00 | 0.00 | 19 | 1020.6 |
| 20260503210613 | 68 | 281 | 5.0 | 12.0 | 0.00 | 0.00 | 0.00 | 19 | 1020.6 |
| 20260503210113 | 68 | 321 | 5.0 | 12.0 | 0.00 | 0.00 | 0.00 | 19 | 1020.6 |
| 20260503205614 | 68 | 297 | 7.0 | 18.0 | 0.00 | 0.00 | 0.00 | 18 | 1020.6 |
| 20260503205116 | 68 | 298 | 11.0 | 21.0 | 0.00 | 0.00 | 0.00 | 17 | 1020.6 |
| 20260503204613 | 68 | 285 | 9.0 | 21.0 | 0.00 | 0.00 | 0.00 | 21 | 1020.6 |
| 20260503204114 | 69 | 288 | 5.0 | 18.0 | 0.00 | 0.00 | 0.00 | 21 | 1020.6 |
| 20260503203613 | 70 | 304 | 2.0 | 6.0 | 0.00 | 0.00 | 0.00 | 17 | 1020.6 |
| 20260503203115 | 71 | 288 | 1.0 | 5.0 | 0.00 | 0.00 | 0.00 | 16 | 1020.6 |
| 20260503202614 | 71 | 67 | 1.0 | 5.0 | 0.00 | 0.00 | 0.00 | 17 | 1020.6 |
| 20260503202113 | 72 | 105 | 1.0 | 4.0 | 0.00 | 0.00 | 0.00 | 16 | 1020.6 |
| 20260503201614 | 72 | 162 | 2.0 | 6.0 | 0.00 | 0.00 | 0.00 | 17 | 1020.6 |
| 20260503201114 | 71 | 49 | 3.0 | 10.0 | 0.00 | 0.00 | 0.00 | 18 | 1020.6 |
| 20260503200613 | 70 | 115 | 2.0 | 10.0 | 0.00 | 0.00 | 0.00 | 18 | 1020.6 |
| 20260503200114 | 70 | 135 | 2.0 | 7.0 | 0.00 | 0.00 | 0.00 | 17 | 1020.6 |
| 20260503195616 | 70 | 122 | 6.0 | 12.0 | 0.00 | 0.00 | 0.00 | 18 | 1020.6 |
| 20260503195611 | 70 | 228 | 4.0 | 12.0 | 0.00 | 0.00 | 0.00 | 17 | 1020.6 |
| 20260503194842 | 69 | 290 | 6.0 | 15.0 | 0.00 | 0.00 | 0.00 | 17 | 1020.6 |
| 20260503194114 | 69 | 288 | 7.0 | 15.0 | 0.00 | 0.00 | 0.00 | 17 | 1020.6 |
| 20260503193613 | 69 | 311 | 7.0 | 15.0 | 0.00 | 0.00 | 0.00 | 17 | 1020.6 |
| 20260503193111 | 69 | 295 | 5.0 | 15.0 | 0.00 | 0.00 | 0.00 | 17 | 1020.6 |
| 20260503192610 | 69 | 290 | 5.0 | 10.0 | 0.00 | 0.00 | 0.00 | 15 | 1020.6 |
| 20260503192109 | 69 | 269 | 6.0 | 14.0 | 0.00 | 0.00 | 0.00 | 16 | 1020.6 |
| 20260503191608 | 69 | 299 | 5.0 | 14.0 | 0.00 | 0.00 | 0.00 | 16 | 1020.6 |
| 20260503191108 | 69 | 307 | 4.0 | 16.0 | 0.00 | 0.00 | 0.00 | 17 | 1020.6 |
| 20260503190608 | 69 | 358 | 4.0 | 16.0 | 0.00 | 0.00 | 0.00 | 16 | 1020.6 |
| 20260503190109 | 70 | 44 | 4.0 | 9.0 | 0.00 | 0.00 | 0.00 | 15 | 1020.6 |
| 20260503185608 | 70 | 293 | 5.0 | 11.0 | 0.00 | 0.00 | 0.00 | 15 | 1020.6 |
| 20260503185338 | 71 | 275 | 6.0 | 11.0 | 0.00 | 0.00 | 0.00 | 16 | 1020.6 |
| 20260503184609 | 71 | 290 | 7.0 | 17.0 | 0.00 | 0.00 | 0.00 | 16 | 1020.6 |
| 20260503184108 | 71 | 291 | 9.0 | 17.0 | 0.00 | 0.00 | 0.00 | 15 | 1020.6 |
| 20260503183605 | 71 | 309 | 7.0 | 15.0 | 0.00 | 0.00 | 0.00 | 15 | 1020.6 |
| 20260503183107 | 71 | 343 | 7.0 | 13.0 | 0.00 | 0.00 | 0.00 | 16 | 1020.6 |
| 20260503182607 | 72 | 316 | 7.0 | 13.0 | 0.00 | 0.00 | 0.00 | 14 | 1020.6 |
| 20260503182105 | 71 | 295 | 8.0 | 13.0 | 0.00 | 0.00 | 0.00 | 14 | 1020.6 |
| 20260503181606 | 70 | 284 | 8.0 | 14.0 | 0.00 | 0.00 | 0.00 | 16 | 1020.6 |
| 20260503181105 | 71 | 302 | 6.0 | 14.0 | 0.00 | 0.00 | 0.00 | 17 | 1020.6 |
| 20260503180608 | 70 | 317 | 5.0 | 11.0 | 0.00 | 0.00 | 0.00 | 17 | 1020.6 |
| 20260503180105 | 69 | 297 | 5.0 | 11.0 | 0.00 | 0.00 | 0.00 | 18 | 1020.6 |
| 20260503175606 | 69 | 298 | 6.0 | 11.0 | 0.00 | 0.00 | 0.00 | 18 | 1020.6 |
| 20260503175106 | 69 | 287 | 6.0 | 11.0 | 0.00 | 0.00 | 0.00 | 18 | 1020.6 |
| 20260503174604 | 70 | 304 | 5.0 | 11.0 | 0.00 | 0.00 | 0.00 | 19 | 1020.6 |
| 20260503174104 | 69 | 265 | 6.0 | 11.0 | 0.00 | 0.00 | 0.00 | 20 | 1020.6 |
| 20260503173833 | 69 | 277 | 7.0 | 14.0 | 0.00 | 0.00 | 0.00 | 20 | 1020.6 |
| 20260503173333 | 68 | 301 | 6.0 | 14.0 | 0.00 | 0.00 | 0.00 | 19 | 1020.6 |
| 20260503172603 | 67 | 290 | 7.0 | 16.0 | 0.00 | 0.00 | 0.00 | 19 | 1020.6 |
| 20260503172102 | 67 | 299 | 8.0 | 16.0 | 0.00 | 0.00 | 0.00 | 19 | 1020.6 |
| 20260503171603 | 67 | 288 | 8.0 | 14.0 | 0.00 | 0.00 | 0.00 | 20 | 1020.6 |
| 20260503171104 | 66 | 306 | 9.0 | 18.0 | 0.00 | 0.00 | 0.00 | 21 | 1020.6 |
| 20260503170603 | 66 | 295 | 9.0 | 18.0 | 0.00 | 0.00 | 0.00 | 20 | 1020.6 |
| 20260503170334 | 67 | 312 | 9.0 | 17.0 | 0.00 | 0.00 | 0.00 | 20 | 1020.6 |
| 20260503150551 | 60 | 254 | 0.0 | 1.0 | 0.00 | 0.00 | 0.00 | 28 | 1020.6 |